| time (UTC) | temp C | wind direction | speed KPH | gust KPH | rain 1hr cm | rain 24hr cm | rain mn cm | humidity % | barometer mb |
| 20260504231421 | 12 | 351 | 0.0 | 0.0 | 0.00 | 0.00 | 0.00 | 77 | 1002.0 |
| 20260504230918 | 12 | 353 | 0.0 | 0.0 | 0.00 | 0.00 | 0.00 | 76 | 1002.0 |
| 20260504230415 | 12 | 344 | 0.0 | 0.0 | 0.00 | 0.00 | 0.00 | 74 | 1001.7 |
| 20260504225914 | 13 | 339 | 0.0 | 0.0 | 0.00 | 0.00 | 0.00 | 73 | 1001.9 |
| 20260504225410 | 13 | 351 | 0.0 | 0.0 | 0.00 | 0.00 | 0.00 | 74 | 1001.9 |
| 20260504224908 | 13 | 339 | 0.0 | 0.0 | 0.00 | 0.00 | 0.00 | 68 | 1002.0 |
| 20260504224404 | 14 | 324 | 0.0 | 3.2 | 0.00 | 0.00 | 0.00 | 69 | 1001.6 |
| 20260504223901 | 14 | 331 | 1.6 | 1.6 | 0.00 | 0.00 | 0.00 | 66 | 1001.7 |
| 20260504223356 | 15 | 9 | 1.6 | 4.8 | 0.00 | 0.00 | 0.00 | 63 | 1001.6 |
| 20260504222853 | 15 | 260 | 4.8 | 6.4 | 0.00 | 0.00 | 0.00 | 62 | 1001.5 |
| 20260504222349 | 15 | 347 | 1.6 | 4.8 | 0.00 | 0.00 | 0.00 | 61 | 1001.6 |
| 20260504221848 | 15 | 304 | 1.6 | 12.9 | 0.00 | 0.00 | 0.00 | 61 | 1001.6 |
| 20260504221344 | 15 | 284 | 3.2 | 3.2 | 0.00 | 0.00 | 0.00 | 64 | 1001.5 |
| 20260504220842 | 15 | 344 | 3.2 | 4.8 | 0.00 | 0.00 | 0.00 | 59 | 1001.6 |
| 20260504220338 | 15 | 289 | 1.6 | 4.8 | 0.00 | 0.00 | 0.00 | 63 | 1001.5 |
| 20260504215836 | 15 | 251 | 6.4 | 11.3 | 0.00 | 0.00 | 0.00 | 59 | 1001.6 |
| 20260504215332 | 15 | 300 | 0.0 | 12.9 | 0.00 | 0.00 | 0.00 | 64 | 1001.6 |
| 20260504214828 | 15 | 325 | 0.0 | 4.8 | 0.00 | 0.00 | 0.00 | 61 | 1001.6 |
| 20260504214325 | 16 | 224 | 4.8 | 6.4 | 0.00 | 0.00 | 0.00 | 58 | 1001.6 |
| 20260504213822 | 16 | 359 | 4.8 | 4.8 | 0.00 | 0.00 | 0.00 | 58 | 1001.2 |
| 20260504213317 | 16 | 359 | 11.3 | 17.7 | 0.00 | 0.00 | 0.00 | 58 | 1001.3 |
| 20260504212815 | 15 | 315 | 3.2 | 4.8 | 0.00 | 0.00 | 0.00 | 60 | 1001.3 |
| 20260504212311 | 15 | 125 | 4.8 | 12.9 | 0.00 | 0.00 | 0.00 | 59 | 1001.4 |
| 20260504211809 | 15 | 35 | 3.2 | 4.8 | 0.00 | 0.00 | 0.00 | 60 | 1001.4 |
| 20260504211305 | 16 | 276 | 6.4 | 16.1 | 0.00 | 0.00 | 0.00 | 58 | 1001.2 |
| 20260504210803 | 16 | 272 | 1.6 | 6.4 | 0.00 | 0.00 | 0.00 | 59 | 1001.3 |
| 20260504210259 | 16 | 335 | 3.2 | 6.4 | 0.00 | 0.00 | 0.00 | 57 | 1001.2 |
| 20260504205757 | 16 | 224 | 6.4 | 9.7 | 0.00 | 0.00 | 0.00 | 60 | 1001.1 |
| 20260504205254 | 16 | 256 | 3.2 | 14.5 | 0.00 | 0.00 | 0.00 | 59 | 1001.0 |
| 20260504204752 | 16 | 266 | 11.3 | 14.5 | 0.00 | 0.00 | 0.00 | 56 | 1001.0 |
| 20260504204250 | 16 | 337 | 0.0 | 6.4 | 0.00 | 0.00 | 0.00 | 60 | 1000.9 |
| 20260504203749 | 17 | 356 | 0.0 | 4.8 | 0.00 | 0.00 | 0.00 | 59 | 1001.0 |
| 20260504203246 | 16 | 337 | 1.6 | 4.8 | 0.00 | 0.00 | 0.00 | 64 | 1001.0 |
| 20260504202741 | 16 | 321 | 4.8 | 9.7 | 0.00 | 0.00 | 0.00 | 60 | 1000.8 |
| 20260504202239 | 15 | 38 | 4.8 | 11.3 | 0.00 | 0.00 | 0.00 | 65 | 1001.1 |
| 20260504201736 | 15 | 291 | 1.6 | 9.7 | 0.00 | 0.00 | 0.00 | 65 | 1001.0 |
| 20260504201233 | 15 | 332 | 8.0 | 11.3 | 0.00 | 0.00 | 0.00 | 66 | 1000.8 |
| 20260504200731 | 15 | 317 | 1.6 | 4.8 | 0.00 | 0.00 | 0.00 | 66 | 1000.9 |
| 20260504200226 | 15 | 296 | 0.0 | 0.0 | 0.00 | 0.00 | 0.00 | 63 | 1000.6 |
| 20260504195723 | 15 | 57 | 3.2 | 9.7 | 0.00 | 0.00 | 0.00 | 61 | 1000.6 |
| 20260504195219 | 15 | 273 | 4.8 | 16.1 | 0.00 | 0.00 | 0.00 | 65 | 1000.7 |
| 20260504194716 | 15 | 311 | 4.8 | 6.4 | 0.00 | 0.00 | 0.00 | 63 | 1000.7 |
| 20260504194212 | 16 | 342 | 0.0 | 3.2 | 0.00 | 0.00 | 0.00 | 63 | 1000.7 |
| 20260504193709 | 16 | 336 | 1.6 | 9.7 | 0.00 | 0.00 | 0.00 | 62 | 1000.8 |
| 20260504193207 | 17 | 177 | 4.8 | 12.9 | 0.00 | 0.00 | 0.00 | 59 | 1000.8 |
| 20260504192705 | 16 | 241 | 11.3 | 17.7 | 0.00 | 0.00 | 0.00 | 60 | 1000.7 |
| 20260504192202 | 16 | 316 | 4.8 | 4.8 | 0.00 | 0.00 | 0.00 | 62 | 1000.8 |
| 20260504191701 | 16 | 344 | 1.6 | 6.4 | 0.00 | 0.00 | 0.00 | 61 | 1000.7 |
| 20260504191157 | 15 | 268 | 9.7 | 14.5 | 0.00 | 0.00 | 0.00 | 62 | 1000.7 |
| 20260504190652 | 15 | 162 | 1.6 | 11.3 | 0.00 | 0.00 | 0.00 | 65 | 1000.9 |
| 20260504190149 | 14 | 353 | 1.6 | 9.7 | 0.00 | 0.00 | 0.00 | 67 | 1001.1 |
| 20260504185646 | 14 | 302 | 8.0 | 17.7 | 0.00 | 0.00 | 0.00 | 66 | 1000.8 |
| 20260504185142 | 14 | 282 | 3.2 | 12.9 | 0.00 | 0.00 | 0.00 | 66 | 1001.1 |
| 20260504184638 | 15 | 353 | 3.2 | 4.8 | 0.00 | 0.00 | 0.00 | 63 | 1001.3 |
| 20260504184133 | 14 | 279 | 14.5 | 20.9 | 0.00 | 0.00 | 0.00 | 64 | 1000.9 |
| 20260504183630 | 14 | 167 | 4.8 | 11.3 | 0.00 | 0.00 | 0.00 | 64 | 1001.3 |
| 20260504183128 | 14 | 244 | 8.0 | 16.1 | 0.00 | 0.00 | 0.00 | 67 | 1001.2 |
| 20260504182625 | 14 | 174 | 4.8 | 6.4 | 0.00 | 0.00 | 0.00 | 64 | 1001.4 |
| 20260504182123 | 13 | 88 | 3.2 | 14.5 | 0.00 | 0.00 | 0.00 | 66 | 1001.2 |
| 20260504181620 | 13 | 70 | 1.6 | 4.8 | 0.00 | 0.00 | 0.00 | 69 | 1001.5 |
| 20260504181117 | 12 | 41 | 1.6 | 4.8 | 0.00 | 0.00 | 0.00 | 71 | 1001.5 |
| 20260504180616 | 12 | 297 | 3.2 | 4.8 | 0.00 | 0.00 | 0.00 | 68 | 1001.5 |
| 20260504180115 | 12 | 190 | 1.6 | 3.2 | 0.00 | 0.00 | 0.00 | 71 | 1001.6 |
| 20260504175612 | 11 | 96 | 3.2 | 6.4 | 0.00 | 0.00 | 0.00 | 71 | 1001.7 |
| 20260504175108 | 11 | 348 | 1.6 | 4.8 | 0.00 | 0.00 | 0.00 | 72 | 1001.6 |
| 20260504174607 | 11 | 227 | 3.2 | 6.4 | 0.00 | 0.00 | 0.00 | 69 | 1001.8 |
| 20260504174102 | 12 | 265 | 3.2 | 3.2 | 0.00 | 0.00 | 0.00 | 69 | 1001.5 |
| 20260504173559 | 12 | 269 | 1.6 | 4.8 | 0.00 | 0.00 | 0.00 | 69 | 1001.5 |
| 20260504173057 | 12 | 154 | 3.2 | 4.8 | 0.00 | 0.00 | 0.00 | 66 | 1001.6 |
| 20260504172553 | 12 | 15 | 0.0 | 4.8 | 0.00 | 0.00 | 0.00 | 64 | 1001.4 |
| 20260504172050 | 12 | 261 | 3.2 | 4.8 | 0.00 | 0.00 | 0.00 | 63 | 1001.2 |
| 20260504171546 | 13 | 0 | 3.2 | 4.8 | 0.00 | 0.00 | 0.00 | 62 | 1001.4 |
| 20260504171044 | 13 | 268 | 1.6 | 3.2 | 0.00 | 0.00 | 0.00 | 61 | 1001.3 |
| 20260504170539 | 13 | 218 | 6.4 | 6.4 | 0.00 | 0.00 | 0.00 | 61 | 1001.2 |
| 20260504150923 | 14 | 86 | 4.8 | 6.4 | 0.00 | 0.00 | 0.00 | 55 | 1001.5 |
| 20260504150420 | 13 | 352 | 1.6 | 4.8 | 0.00 | 0.00 | 0.00 | 60 | 1001.6 |
| 20260504140847 | 12 | 350 | 6.4 | 12.9 | 0.00 | 0.00 | 0.00 | 53 | 1002.2 |
| 20260504140343 | 13 | 328 | 6.4 | 6.4 | 0.00 | 0.00 | 0.00 | 51 | 1002.5 |
| 20260504130811 | 11 | 21 | 1.6 | 3.2 | 0.00 | 0.00 | 0.00 | 55 | 1003.2 |
| 20260504130308 | 11 | 299 | 3.2 | 4.8 | 0.00 | 0.00 | 0.00 | 57 | 1003.3 |
| 20260504120231 | 8 | 342 | 0.0 | 4.8 | 0.00 | 0.00 | 0.00 | 65 | 1003.5 |
| 20260504110658 | 3 | 340 | 0.0 | 0.0 | 0.00 | 0.00 | 0.00 | 91 | 1003.6 |
| 20260504110155 | 2 | 322 | 0.0 | 0.0 | 0.00 | 0.00 | 0.00 | 98 | 1003.6 |
| 20260504100119 | -1 | 340 | 0.0 | 0.0 | 0.00 | 0.00 | 0.00 | 99 | 1003.2 |
| 20260504081512 | -1 | 339 | 0.0 | 0.0 | 0.00 | 0.00 | 0.00 | 99 | 1002.5 |
| 20260504081007 | -1 | 336 | 0.0 | 0.0 | 0.00 | 0.00 | 0.00 | 99 | 1002.5 |
| 20260504080504 | -1 | 337 | 0.0 | 0.0 | 0.00 | 0.00 | 0.00 | 99 | 1002.5 |
| 20260504050317 | 0 | 315 | 0.0 | 0.0 | 0.00 | 0.00 | 0.00 | 99 | 1001.6 |
| 20260504045814 | 0 | 156 | 3.2 | 4.8 | 0.00 | 0.00 | 0.00 | 99 | 1001.6 |
| 20260504045314 | 0 | 333 | 0.0 | 4.8 | 0.00 | 0.00 | 0.00 | 99 | 1001.4 |
| 20260504044812 | 0 | 330 | 0.0 | 0.0 | 0.00 | 0.00 | 0.00 | 99 | 1001.6 |
| 20260504044309 | 0 | 342 | 0.0 | 0.0 | 0.00 | 0.00 | 0.00 | 99 | 1001.4 |
| 20260504043806 | 0 | 345 | 0.0 | 0.0 | 0.00 | 0.00 | 0.00 | 99 | 1001.5 |
| 20260504043303 | 0 | 337 | 0.0 | 0.0 | 0.00 | 0.00 | 0.00 | 98 | 1001.5 |
| 20260504042801 | 0 | 353 | 0.0 | 3.2 | 0.00 | 0.00 | 0.00 | 98 | 1001.3 |
| 20260504042257 | 0 | 337 | 0.0 | 0.0 | 0.00 | 0.00 | 0.00 | 98 | 1001.5 |
| 20260504041753 | 0 | 337 | 0.0 | 0.0 | 0.00 | 0.00 | 0.00 | 98 | 1001.4 |
| 20260504041249 | 1 | 339 | 0.0 | 0.0 | 0.00 | 0.00 | 0.00 | 98 | 1001.3 |
| 20260504040745 | 1 | 332 | 0.0 | 0.0 | 0.00 | 0.00 | 0.00 | 98 | 1001.1 |
| 20260504040243 | 1 | 338 | 0.0 | 0.0 | 0.00 | 0.00 | 0.00 | 97 | 1001.2 |
| 20260504035739 | 1 | 340 | 0.0 | 0.0 | 0.00 | 1.63 | 1.63 | 97 | 1001.3 |
| 20260504035236 | 1 | 327 | 0.0 | 0.0 | 0.00 | 1.63 | 1.63 | 97 | 1001.3 |
| 20260504034734 | 1 | 326 | 1.6 | 3.2 | 0.00 | 1.63 | 1.63 | 96 | 1001.0 |
| 20260504034231 | 2 | 321 | 0.0 | 0.0 | 0.00 | 1.63 | 1.63 | 95 | 1001.0 |
| 20260504033729 | 2 | 326 | 0.0 | 0.0 | 0.00 | 1.63 | 1.63 | 94 | 1001.2 |
| 20260504033226 | 2 | 329 | 0.0 | 3.2 | 0.00 | 1.63 | 1.63 | 91 | 1000.9 |
| 20260504032723 | 2 | 328 | 0.0 | 1.6 | 0.00 | 1.63 | 1.63 | 92 | 1001.0 |
| 20260504032220 | 2 | 337 | 0.0 | 1.6 | 0.00 | 1.63 | 1.63 | 91 | 1000.9 |
| 20260504031717 | 2 | 338 | 0.0 | 3.2 | 0.00 | 1.63 | 1.63 | 90 | 1001.1 |
| 20260504031214 | 2 | 343 | 0.0 | 1.6 | 0.00 | 1.63 | 1.63 | 90 | 1000.9 |
| 20260504030710 | 2 | 16 | 3.2 | 3.2 | 0.00 | 1.63 | 1.63 | 87 | 1000.9 |
| 20260504030207 | 3 | 332 | 0.0 | 3.2 | 0.00 | 1.63 | 1.63 | 85 | 1000.9 |
| 20260504025704 | 3 | 349 | 1.6 | 3.2 | 0.00 | 1.63 | 1.63 | 89 | 1000.8 |
| 20260504025200 | 3 | 279 | 3.2 | 3.2 | 0.00 | 1.63 | 1.63 | 87 | 1000.8 |
| 20260504024658 | 3 | 204 | 3.2 | 3.2 | 0.00 | 1.63 | 1.63 | 86 | 1000.7 |
| 20260504024154 | 3 | 331 | 0.0 | 6.4 | 0.00 | 1.63 | 1.63 | 89 | 1000.7 |
| 20260504023650 | 2 | 330 | 4.8 | 6.4 | 0.00 | 1.63 | 1.63 | 92 | 1000.7 |
| 20260504023147 | 2 | 340 | 0.0 | 0.0 | 0.00 | 1.63 | 1.63 | 92 | 1000.5 |
| 20260504022643 | 3 | 333 | 0.0 | 1.6 | 0.00 | 1.63 | 1.63 | 91 | 1000.5 |
| 20260504022139 | 3 | 325 | 1.6 | 1.6 | 0.00 | 1.63 | 1.63 | 92 | 1000.6 |
| 20260504021637 | 3 | 320 | 0.0 | 0.0 | 0.00 | 1.63 | 1.63 | 91 | 1000.6 |
| 20260504021133 | 3 | 336 | 0.0 | 0.0 | 0.00 | 1.63 | 1.63 | 88 | 1000.4 |
| 20260504020631 | 3 | 334 | 1.6 | 1.6 | 0.00 | 1.63 | 1.63 | 88 | 1000.4 |
| 20260504020126 | 3 | 12 | 0.0 | 1.6 | 0.00 | 1.63 | 1.63 | 89 | 1000.4 |
| 20260504015623 | 3 | 307 | 1.6 | 4.8 | 0.00 | 1.63 | 1.63 | 86 | 1000.3 |
| 20260504015120 | 3 | 292 | 1.6 | 3.2 | 0.00 | 1.63 | 1.63 | 85 | 1000.4 |
| 20260504014616 | 4 | 311 | 3.2 | 9.7 | 0.00 | 1.63 | 1.63 | 87 | 1000.4 |
| 20260504014113 | 3 | 327 | 1.6 | 3.2 | 0.00 | 1.63 | 1.63 | 86 | 1000.3 |
| 20260504013610 | 3 | 315 | 0.0 | 1.6 | 0.00 | 1.63 | 1.63 | 88 | 1000.1 |
| 20260504013107 | 4 | 340 | 0.0 | 3.2 | 0.00 | 1.63 | 1.63 | 87 | 1000.3 |
| 20260504012604 | 4 | 346 | 0.0 | 1.6 | 0.00 | 1.63 | 1.63 | 89 | 1000.2 |
| 20260504012102 | 5 | 324 | 0.0 | 4.8 | 0.00 | 1.63 | 1.63 | 89 | 1000.2 |
| 20260504011559 | 5 | 289 | 1.6 | 3.2 | 0.00 | 1.63 | 1.63 | 87 | 999.8 |
| 20260504011055 | 5 | 0 | 1.6 | 4.8 | 0.00 | 1.63 | 1.63 | 86 | 999.8 |
| 20260504010551 | 5 | 338 | 3.2 | 4.8 | 0.00 | 1.63 | 1.63 | 85 | 999.8 |
| 20260504010047 | 5 | 299 | 1.6 | 4.8 | 0.00 | 1.63 | 1.63 | 87 | 999.8 |
| 20260504005544 | 5 | 225 | 3.2 | 4.8 | 0.00 | 1.63 | 1.63 | 90 | 999.7 |
| 20260504005041 | 5 | 344 | 3.2 | 4.8 | 0.00 | 1.63 | 1.63 | 92 | 999.6 |
| 20260504004539 | 5 | 359 | 0.0 | 1.6 | 0.00 | 1.63 | 1.63 | 96 | 999.7 |
| 20260504004036 | 5 | 322 | 0.0 | 3.2 | 0.00 | 1.63 | 1.63 | 98 | 999.5 |
| 20260504003532 | 5 | 311 | 0.0 | 6.4 | 0.00 | 1.63 | 1.63 | 99 | 999.1 |
| 20260504003029 | 5 | 355 | 1.6 | 4.8 | 0.00 | 1.63 | 1.63 | 99 | 999.0 |
| 20260504002526 | 5 | 336 | 0.0 | 0.0 | 0.00 | 1.63 | 1.63 | 99 | 999.0 |
| 20260504002023 | 5 | 346 | 0.0 | 0.0 | 0.00 | 1.63 | 1.63 | 99 | 999.2 |
| 20260504001521 | 5 | 337 | 0.0 | 0.0 | 0.00 | 1.63 | 1.63 | 99 | 999.2 |
| 20260504001017 | 5 | 332 | 0.0 | 0.0 | 0.00 | 1.63 | 1.63 | 99 | 998.9 |
| 20260504000514 | 5 | 336 | 0.0 | 0.0 | 0.00 | 1.63 | 1.63 | 99 | 999.0 |
| 20260504000012 | 6 | 342 | 0.0 | 0.0 | 0.00 | 1.63 | 1.63 | 99 | 998.9 |
| 20260503235509 | 6 | 348 | 0.0 | 0.0 | 0.00 | 1.63 | 1.63 | 98 | 998.8 |
| 20260503235006 | 6 | 338 | 0.0 | 0.0 | 0.00 | 1.63 | 1.63 | 98 | 998.8 |
| 20260503234504 | 6 | 340 | 0.0 | 0.0 | 0.00 | 1.63 | 1.63 | 97 | 998.6 |
| 20260503234002 | 6 | 337 | 0.0 | 0.0 | 0.00 | 1.63 | 1.63 | 97 | 998.6 |
| 20260503233458 | 6 | 347 | 0.0 | 0.0 | 0.00 | 1.63 | 1.63 | 96 | 998.6 |
| 20260503232954 | 6 | 333 | 1.6 | 1.6 | 0.00 | 1.63 | 1.63 | 95 | 998.5 |
| 20260503232451 | 6 | 344 | 0.0 | 1.6 | 0.00 | 1.63 | 1.63 | 95 | 998.5 |
| 20260503231949 | 7 | 337 | 0.0 | 3.2 | 0.00 | 1.63 | 1.63 | 95 | 998.5 |